Simultaneous Nadir Overpasses (SNOs) Predictions

Prediction of SNOs between TERRA and METOP-C Satellite Orbit:

Table of predicted SNOs for the next 14.0 days since TLE Epoch: 5/24/2025
Index Date (TERRA) Time (TERRA) Lat,Lon (TERRA) SZA (TERRA ) Date (METOP-C) Time (METOP-C) Lat,Lon (METOP-C) SZA (METOP-C ) Distance(km) Time Diff (sec)
1 05/24/2025 07:52:17 67.06,-176.42 82.48 05/24/2025 07:51:50 67.05,-176.37 82.47 2.59 27
2 05/24/2025 08:40:44 -64.14, -6.02 94.88 05/24/2025 08:41:36 -64.15, -6.05 94.83 2.18 52
3 05/26/2025 20:43:02 70.33, -12.90 79.01 05/26/2025 20:41:49 70.33, -13.01 78.89 4.48 73
4 05/26/2025 21:31:22 -67.05, 158.76 97.98 05/26/2025 21:31:27 -67.06, 158.71 97.99 2.36 5
5 05/29/2025 10:21:37 -68.66, -35.53 99.87 05/29/2025 10:20:54 -68.64, -35.48 99.90 2.74 43
6 05/29/2025 11:10:09 65.94, 135.04 82.61 05/29/2025 11:10:47 65.95, 135.02 82.65 1.06 38
7 06/01/2025 00:00:33 68.10, -59.71 80.25 06/01/2025 00:00:24 68.10, -59.69 80.25 0.93 9
8 06/01/2025 00:48:54 -64.83, 111.25 96.78 06/01/2025 00:50:03 -64.83, 111.26 96.68 0.40 69
9 06/03/2025 12:51:01 70.47, 104.77 77.71 06/03/2025 12:50:06 70.48, 104.71 77.62 2.78 55
10 06/03/2025 13:39:31 -67.79, -84.18 99.83 06/03/2025 13:39:54 -67.80, -84.22 99.82 1.84 23
11 06/06/2025 02:29:46 -69.45, 81.34 101.66 06/06/2025 02:29:22 -69.44, 81.37 101.68 1.31 24



Historial Predications of SNOs between TERRA and METOP-C
